[[{"header":{"parameterUnit":"m.s-1","parameterCategory":1,"la1":30.2991,"la2":30.254,"lo1":-89.0895,"lo2":-89.0444,"dy":0.0017,"dx":0.0017,"nx":28,"ny":28,"refTime":"2024-04-01T21:00:00:Z","depth":0,"parameterNumber":2,"parameterNumberName":"U-component_of_WINDS"},"data":[0,0,0,0,0,0,0,0,0,0,0,0,0,0,0,0,0,0,0,0,0,0,0,0,0,0,0,0,0,0,0,0,0,0,0,0,0,0,0,0,0,0,0,0,0,0,0,0,0,0,0,0,0,0,0,0,0,0,-1.4421,-1.4421,0,-1.4405,-1.4405,-1.4405,-1.4386,-1.4386,-1.4386,-1.4386,-1.4368,-1.4368,-1.4368,0,0,0,0,0,0,0,0,0,0,0,0,0,-1.4436,-1.4435,-1.4421,-1.4421,-1.4421,-1.4405,-1.4405,-1.4405,-1.4386,-1.4386,-1.4386,-1.4385,-1.4368,-1.4368,-1.4368,0,0,0,0,0,0,0,0,0,0,0,0,0,-1.4425,-1.4435,-1.4421,-1.441,-1.4409,-1.4405,-1.4405,-1.4405,-1.4386,-1.4386,-1.4386,-1.4385,-1.4368,-1.4368,-1.4368,-1.4374,0,0,-1.4367,-1.4367,0,0,0,0,0,0,0,0,-1.4426,-1.4425,-1.4412,-1.4411,-1.4409,-1.4397,-1.4404,-1.4394,-1.4387,-1.4395,-1.4386,-1.4385,-1.4378,-1.4377,-1.4375,-1.4373,-1.4372,-1.4367,-1.4367,-1.4366,-1.4366,0,0,0,0,0,0,0,-1.4427,-1.4425,-1.4415,-1.4412,-1.441,-1.4405,-1.4403,-1.4402,-1.4389,-1.4394,-1.4393,-1.4391,-1.4377,-1.4375,-1.4374,-1.4372,-1.4367,-1.4366,-1.4366,-1.4366,-1.4374,-1.4374,0,0,0,0,0,0,-1.4429,-1.4426,-1.4415,-1.4414,-1.4417,-1.4405,-1.4403,-1.4402,-1.4389,-1.4387,-1.4391,-1.439,-1.4376,-1.4375,-1.4374,-1.4379,-1.4366,-1.4366,-1.4366,-1.4374,-1.4374,-1.4375,0,0,0,0,0,0,-1.443,-1.4428,-1.4416,-1.442,-1.4418,-1.4406,-1.4404,-1.4401,-1.4399,-1.4387,-1.4385,-1.4392,-1.4376,-1.4374,-1.4374,-1.4379,-1.4366,-1.4366,-1.4373,-1.4374,-1.4374,-1.4391,0,0,0,0,0,0,-1.443,-1.4429,-1.4431,-1.442,-1.4418,-1.4417,-1.4404,-1.4401,-1.4399,-1.4397,-1.4386,-1.4384,-1.4375,-1.4374,-1.4374,-1.4378,-1.4365,-1.4373,-1.4373,-1.4374,-1.439,-1.4393,-1.4394,0,0,0,0,0,-1.4431,-1.4436,-1.4431,-1.443,-1.4421,-1.4417,-1.4416,-1.4405,-1.4399,-1.4401,-1.4394,-1.4385,-1.4378,-1.4375,-1.4373,-1.4378,-1.4372,-1.4373,-1.4374,-1.4389,-1.4392,-1.4394,0,0,0,0,0,0,-1.4448,-1.4435,-1.4429,-1.4431,-1.4426,-1.4414,-1.4416,-1.4409,-1.4404,-1.4403,-1.439,-1.4388,-1.4389,-1.4383,-1.4379,-1.4383,-1.4374,-1.4375,-1.4386,-1.4389,-1.4391,-1.4391,-1.4365,0,0,0,0,0,-1.4452,-1.4451,-1.4439,-1.4443,-1.444,-1.4429,-1.4427,-1.4419,-1.4413,-1.441,-1.4402,-1.4396,-1.4392,-1.439,-1.4387,-1.439,-1.4387,-1.4392,-1.4394,-1.4396,-1.4396,-1.4397,-1.4399,-1.4377,-1.4377,-1.4377,0,0,-1.4461,-1.4453,-1.4453,-1.4446,-1.444,-1.4439,-1.4427,-1.4426,-1.4424,-1.441,-1.4409,-1.4403,-1.4395,-1.4397,-1.4397,-1.4392,-1.4402,-1.4397,-1.4399,-1.4398,-1.4398,-1.44,-1.4402,-1.4378,-1.4378,-1.4378,0,0,-1.4475,-1.447,-1.4471,-1.4466,-1.4459,-1.4451,-1.4452,-1.4441,-1.4437,-1.4436,-1.4425,-1.4423,-1.4418,-1.4412,-1.4409,-1.4421,-1.4413,-1.4421,-1.4431,-1.4431,-1.4433,-1.4434,-1.4438,-1.444,-1.4421,-1.4421,-1.4421,0,-1.4486,-1.4484,-1.4473,-1.4473,-1.447,-1.4457,-1.4459,-1.4454,-1.4445,-1.4443,-1.4438,-1.4431,-1.4425,-1.4424,-1.4428,-1.4426,-1.4425,-1.4421,-1.4434,-1.4435,-1.4436,-1.4439,-1.4441,-1.4422,-1.4422,-1.4422,-1.4422,0,-1.4498,-1.4496,-1.4499,-1.449,-1.4488,-1.4488,-1.4478,-1.4476,-1.4469,-1.4462,-1.4461,-1.4454,-1.4448,-1.4447,-1.444,-1.4446,-1.4443,-1.4436,-1.4427,-1.4439,-1.4442,-1.4443,-1.4424,-1.4423,-1.4423,-1.4423,0,0,-1.4522,-1.4508,-1.4509,-1.4505,-1.4496,-1.4494,-1.4494,-1.4489,-1.4487,-1.4482,-1.4481,-1.4477,-1.447,-1.4466,-1.4459,-1.446,-1.4469,-1.4452,-1.4452,-1.4455,-1.4474,-1.4478,-1.448,-1.4464,-1.4464,-1.4464,-1.4474,0,-1.4533,-1.4533,-1.4523,-1.4525,-1.4523,-1.4511,-1.4511,-1.4505,-1.4499,-1.4496,-1.4489,-1.4486,-1.4478,-1.4475,-1.4476,-1.4468,-1.4472,-1.4467,-1.4462,-1.4462,-1.4463,-1.4481,-1.4486,-1.4496,-1.4475,-1.4475,-1.4475,0,-1.4547,-1.4542,-1.4544,-1.4534,-1.4533,-1.4533,-1.4527,-1.4525,-1.4518,-1.4513,-1.4509,-1.4501,-1.4499,-1.4491,-1.4489,-1.4486,-1.4483,-1.4479,-1.4479,-1.4477,-1.4469,-1.4479,-1.4499,-1.45,-1.4477,-1.4477,-1.4477,0,-1.4563,-1.4558,-1.4558,-1.4555,-1.4544,-1.4544,-1.4539,-1.4532,-1.4529,-1.4524,-1.4522,-1.4517,-1.4514,-1.451,-1.45,-1.4495,-1.4498,-1.449,-1.4494,-1.4494,-1.4494,-1.4494,-1.4512,-1.4494,-1.4494,-1.4494,-1.4494,0,-1.4577,-1.4578,-1.4565,-1.4564,-1.4565,-1.4555,-1.4556,-1.455,-1.4544,-1.4542,-1.4532,-1.453,-1.4518,-1.4515,-1.4507,-1.4506,-1.4505,-1.4501,-1.4498,-1.4501,-1.4501,-1.4498,-1.4497,-1.4494,-1.4494,-1.4494,-1.4494,0,-1.4594,-1.4586,-1.4585,-1.4575,-1.4572,-1.4573,-1.4564,-1.4563,-1.4557,-1.4555,-1.4553,-1.4543,-1.4539,-1.4529,-1.4522,-1.4517,-1.4517,-1.4514,-1.452,-1.4518,-1.4522,-1.4522,-1.4539,-1.454,-1.4522,-1.4522,-1.4522,0,-1.4603,-1.4604,-1.4594,-1.4592,-1.4588,-1.4585,-1.4582,-1.4572,-1.457,-1.4562,-1.4562,-1.4557,-1.4553,-1.4546,-1.4538,-1.4532,-1.4528,-1.4535,-1.4527,-1.453,-1.4527,-1.4527,-1.4526,-1.4536,-1.4536,-1.4536,-1.4536,0,-1.4619,-1.4615,-1.4611,-1.4606,-1.4604,-1.4599,-1.4594,-1.4593,-1.4582,-1.4579,-1.4575,-1.4572,-1.4565,-1.456,-1.4553,-1.4548,-1.454,-1.4539,-1.4539,-1.4541,-1.4544,-1.4542,-1.4523,-1.4538,-1.4538,-1.4538,-1.4538,-1.4538,-1.4632,-1.4632,-1.4625,-1.4621,-1.4616,-1.4612,-1.4611,-1.4604,-1.46,-1.4594,-1.4589,-1.4585,-1.4577,-1.4568,-1.4563,-1.456,-1.4556,-1.4557,-1.4557,-1.4557,-1.4557,-1.4546,-1.4559,-1.4559,-1.4558,-1.4558,-1.4558,0,-1.4647,-1.4642,-1.4639,-1.4632,-1.4629,-1.4623,-1.4617,-1.4614,-1.4612,-1.4606,-1.4602,-1.4597,-1.4592,-1.4583,-1.4577,-1.4576,-1.4572,-1.4575,-1.4574,-1.4573,-1.4562,-1.4562,-1.4578,-1.4578,-1.4578,-1.4578,-1.4578,-1.4578,-1.4654,-1.4653,-1.4648,-1.4645,-1.464,-1.4636,-1.4633,-1.4629,-1.4624,-1.4619,-1.4615,-1.461,-1.4602,-1.4596,-1.4591,-1.4589,-1.4587,-1.459,-1.4587,-1.4576,-1.4574,-1.4572,-1.4572,-1.459,-1.459,-1.4598,-1.4598,-1.4598]},{"header":{"parameterUnit":"m.s-1","parameterCategory":1,"la1":30.2991,"la2":30.254,"lo1":-89.0895,"lo2":-89.0444,"dy":0.0017,"dx":0.0017,"nx":28,"ny":28,"refTime":"2024-04-01T21:00:00:Z","depth":0,"parameterNumber":3,"parameterNumberName":"V-component_of_WINDS"},"data":[0,0,0,0,0,0,0,0,0,0,0,0,0,0,0,0,0,0,0,0,0,0,0,0,0,0,0,0,0,0,0,0,0,0,0,0,0,0,0,0,0,0,0,0,0,0,0,0,0,0,0,0,0,0,0,0,0,0,1.9834,1.9835,0,1.9874,1.9874,1.9875,1.9902,1.9902,1.9902,1.9903,1.9943,1.9944,1.9945,0,0,0,0,0,0,0,0,0,0,0,0,0,1.9783,1.9784,1.9834,1.9835,1.9835,1.9874,1.9874,1.9875,1.9902,1.9902,1.9902,1.9903,1.9943,1.9944,1.9945,0,0,0,0,0,0,0,0,0,0,0,0,0,1.9812,1.9784,1.9834,1.9853,1.9856,1.9874,1.9874,1.9875,1.9902,1.9902,1.9903,1.9903,1.9942,1.9944,1.9945,1.9947,0,0,1.9949,1.995,0,0,0,0,0,0,0,0,1.9811,1.9814,1.985,1.9852,1.9855,1.9883,1.9871,1.9899,1.9902,1.9884,1.9903,1.9903,1.9923,1.9926,1.9933,1.9949,1.9951,1.9949,1.995,1.9951,1.9951,0,0,0,0,0,0,0,1.9809,1.9813,1.985,1.9851,1.9853,1.986,1.9865,1.9877,1.9901,1.9886,1.9888,1.9892,1.9924,1.9931,1.9934,1.9951,1.9949,1.995,1.9951,1.9952,1.9973,1.9973,0,0,0,0,0,0,1.9804,1.9811,1.9849,1.9851,1.9833,1.9861,1.9866,1.9874,1.9901,1.9906,1.9892,1.9893,1.9929,1.9932,1.9935,1.9941,1.9951,1.9952,1.9953,1.9973,1.9973,1.9973,0,0,0,0,0,0,1.9802,1.9807,1.9847,1.9832,1.9837,1.9862,1.987,1.9874,1.9882,1.9906,1.9911,1.9895,1.9929,1.9933,1.9944,1.9942,1.9952,1.9954,1.9974,1.9973,1.9973,1.9951,0,0,0,0,0,0,1.9801,1.9806,1.9807,1.9831,1.9838,1.9855,1.987,1.9875,1.9884,1.9886,1.991,1.9914,1.993,1.9942,1.9946,1.9944,1.9955,1.9974,1.9973,1.9973,1.9952,1.9949,1.9948,0,0,0,0,0,1.9799,1.9799,1.9807,1.9811,1.9839,1.9855,1.9859,1.9877,1.9883,1.9885,1.9901,1.9913,1.9942,1.9943,1.9947,1.9946,1.9974,1.9973,1.9973,1.9952,1.995,1.9948,0,0,0,0,0,0,1.9773,1.9802,1.9811,1.9819,1.9834,1.986,1.9862,1.9874,1.9887,1.9889,1.9911,1.9916,1.9925,1.9937,1.9937,1.9951,1.996,1.996,1.9943,1.994,1.9938,1.9936,1.9956,0,0,0,0,0,1.9768,1.9778,1.9803,1.9808,1.9815,1.9837,1.9844,1.9857,1.9874,1.988,1.9897,1.9913,1.9926,1.9934,1.9947,1.9953,1.9959,1.9955,1.9953,1.9951,1.9951,1.9957,1.9955,1.9971,1.9971,1.9971,0,0,1.9759,1.9776,1.9781,1.9803,1.9816,1.9827,1.9842,1.9852,1.986,1.9882,1.9894,1.9906,1.9926,1.9935,1.9939,1.9945,1.9948,1.995,1.9949,1.995,1.9956,1.9955,1.9953,1.9971,1.9971,1.9971,0,0,1.9746,1.976,1.9766,1.9779,1.9799,1.9814,1.9815,1.9839,1.9848,1.986,1.9877,1.9887,1.9908,1.9921,1.9931,1.9925,1.9937,1.9928,1.9918,1.9923,1.9922,1.9921,1.992,1.9919,1.9928,1.9928,1.9928,0,1.9731,1.9747,1.9767,1.9776,1.9786,1.9807,1.9813,1.9825,1.9848,1.9855,1.986,1.9888,1.9902,1.9915,1.9914,1.9921,1.9923,1.9926,1.9921,1.992,1.9919,1.9918,1.9918,1.9927,1.9927,1.9927,1.9927,0,1.9729,1.974,1.9742,1.9765,1.9775,1.9782,1.9803,1.9811,1.9823,1.9838,1.985,1.9868,1.9886,1.989,1.9901,1.9905,1.9908,1.9916,1.9926,1.9916,1.9916,1.9916,1.9925,1.9926,1.9926,1.9926,0,0,1.9701,1.9735,1.9735,1.9746,1.977,1.9779,1.9788,1.9806,1.9813,1.9828,1.9837,1.9855,1.9863,1.9874,1.9888,1.9892,1.9887,1.9901,1.9902,1.9898,1.9893,1.9887,1.9886,1.9896,1.9896,1.9896,1.9892,0,1.9693,1.971,1.9729,1.974,1.9751,1.9771,1.9779,1.9795,1.9808,1.982,1.9835,1.9848,1.9858,1.9865,1.987,1.9887,1.9887,1.9887,1.9904,1.9905,1.99,1.9885,1.9878,1.9874,1.9892,1.9892,1.9892,0,1.9686,1.9701,1.9713,1.9737,1.9742,1.9749,1.9767,1.9778,1.9797,1.9806,1.9819,1.9833,1.9845,1.9853,1.9869,1.9869,1.9877,1.9886,1.9887,1.9889,1.9898,1.9888,1.9873,1.9873,1.9891,1.9891,1.9891,0,1.9665,1.9688,1.9699,1.9708,1.9736,1.974,1.9752,1.9771,1.9781,1.9797,1.9803,1.982,1.9829,1.9842,1.9861,1.9865,1.9876,1.9885,1.9885,1.9884,1.9886,1.9886,1.9872,1.989,1.989,1.989,1.989,0,1.9655,1.9661,1.969,1.9697,1.9706,1.9727,1.9735,1.9749,1.9766,1.9776,1.9794,1.9803,1.9827,1.9839,1.9854,1.9866,1.987,1.9878,1.9882,1.9877,1.9876,1.9883,1.9884,1.989,1.989,1.989,1.989,0,1.9633,1.9653,1.9666,1.9692,1.9698,1.9704,1.9726,1.9734,1.9749,1.9761,1.9765,1.9789,1.9804,1.9825,1.9846,1.9856,1.9866,1.9872,1.986,1.9862,1.9861,1.9861,1.9852,1.9853,1.9869,1.9869,1.9869,0,1.9625,1.9631,1.9658,1.9666,1.9678,1.969,1.97,1.9722,1.9732,1.9754,1.9759,1.9776,1.979,1.9814,1.9833,1.985,1.9857,1.9852,1.9859,1.9854,1.9858,1.9857,1.9858,1.9851,1.9851,1.985,1.985,0,1.961,1.9619,1.9633,1.9651,1.9662,1.9677,1.9693,1.9698,1.9723,1.9733,1.9749,1.9761,1.9783,1.98,1.9819,1.9832,1.9845,1.9848,1.9849,1.9844,1.9837,1.9841,1.9856,1.9848,1.9848,1.9848,1.9848,1.9849,1.9595,1.9602,1.9622,1.9637,1.9651,1.9666,1.9674,1.9691,1.9705,1.9725,1.9736,1.9752,1.9772,1.98,1.9812,1.9825,1.983,1.9831,1.9831,1.9832,1.983,1.9834,1.9828,1.9828,1.9828,1.9829,1.9829,0,1.9581,1.9596,1.9609,1.9631,1.9643,1.9655,1.9673,1.9682,1.9696,1.9713,1.9727,1.9746,1.9763,1.9784,1.9802,1.9808,1.9815,1.9812,1.9812,1.9815,1.9824,1.9822,1.9807,1.9807,1.9807,1.9807,1.9807,1.9807,1.9576,1.9588,1.96,1.962,1.9634,1.965,1.9659,1.9673,1.9687,1.9707,1.9721,1.9735,1.9754,1.9773,1.9789,1.9795,1.9801,1.9797,1.9805,1.9813,1.9815,1.9816,1.9814,1.9798,1.9798,1.9795,1.9795,1.9795]}]]